Location: Groß Jägerheide
(52.5522°N, 10.0267°E)
Time: 23:14:58
(UTC+00:00)

Cosmos 2219 - Pass Details

Date: 13 December 2025
Orbit: 833 x 858 km, 71.1° (Epoch: 21 April)

Event Time Altitude Azimuth Distance (km) Brightness Sun altitude
Rises 17:31:52 0° 327° (NNW) 3,432 6.7 -20.8°
Reaches altitude 10° 17:34:21 10° 324° (NW) 2,495 5.9 -21.2°
Maximum altitude 17:40:00 63° 245° (WSW) 956 3.7 -22.0°
Drops below altitude 10° 17:45:38 10° 166° (SSE) 2,488 5.6 -22.9°
Sets 17:48:06 0° 163° (SSE) 3,421 6.3 -23.3°
